Location: Bonnesvalyn
(49.1218°N, 3.3177°E)
Time: 16:29:37
(UTC+00:00)

Cosmos 841 Rocket - Pass Details

Date: 09 February 2023
Orbit: 746 x 771 km, 74.0° (Epoch: 25 March)

Event Time Altitude Azimuth Distance (km) Brightness Sun altitude
Rises 17:53:29 0° 334° (NNW) 3,257 7.0 -9.8°
Reaches altitude 10° 17:55:53 10° 332° (NNW) 2,324 6.2 -10.2°
Maximum altitude 18:01:06 65° 251° (WSW) 846 4.0 -11.0°
Drops below altitude 10° 18:06:16 10° 171° (S) 2,296 6.0 -11.8°
Sets 18:08:38 0° 168° (SSE) 3,214 6.7 -12.2°
